This is the latest recevied weather packets stored in our database for station/object OE7AOT-10. If no packets are shown the sender has not sent any weather packets the latest 10 day(s).
| Time | Temp. | Humidity | Pressure | Rain* | Wind** | Luminosity | Snow |
|---|---|---|---|---|---|---|---|
| 1777712690 | 22.78° C | 31% | 1031.6 hPa | - | - | - | - |
| 1777711790 | 22.78° C | 30% | 1031.6 hPa | - | - | - | - |
| 1777710890 | 22.22° C | 31% | 1031.7 hPa | - | - | - | - |
| 1777709990 | 22.78° C | 29% | 1031.9 hPa | - | - | - | - |
| 1777709090 | 22.78° C | 28% | 1031.9 hPa | - | - | - | - |
| 1777708189 | 22.78° C | 28% | 1032 hPa | - | - | - | - |
| 1777707289 | 22.78° C | 30% | 1032.1 hPa | - | - | - | - |
| 1777706389 | 22.78° C | 31% | 1032.3 hPa | - | - | - | - |
| 1777705489 | 22.78° C | 30% | 1032.4 hPa | - | - | - | - |
| 1777704589 | 22.78° C | 29% | 1032.5 hPa | - | - | - | - |
| 1777703689 | 22.78° C | 29% | 1032.6 hPa | - | - | - | - |
| 1777702788 | 22.78° C | 31% | 1032.6 hPa | - | - | - | - |
| 1777701888 | 23.33° C | 27% | 1032.6 hPa | - | - | - | - |
| 1777700988 | 23.33° C | 26% | 1032.7 hPa | - | - | - | - |
| 1777700088 | 23.33° C | 28% | 1032.7 hPa | - | - | - | - |
| 1777699188 | 23.89° C | 26% | 1032.7 hPa | - | - | - | - |
| 1777698288 | 23.33° C | 27% | 1032.8 hPa | - | - | - | - |
| 1777697388 | 23.33° C | 26% | 1032.7 hPa | - | - | - | - |
| 1777696488 | 23.33° C | 28% | 1032.7 hPa | - | - | - | - |
| 1777695587 | 23.33° C | 27% | 1032.6 hPa | - | - | - | - |
| 1777694687 | 23.33° C | 27% | 1032.6 hPa | - | - | - | - |
| 1777693787 | 23.33° C | 27% | 1032.6 hPa | - | - | - | - |
| 1777692887 | 23.33° C | 27% | 1032.5 hPa | - | - | - | - |
| 1777691987 | 23.33° C | 27% | 1032.6 hPa | - | - | - | - |
| 1777691087 | 23.33° C | 28% | 1032.6 hPa | - | - | - | - |
* Rain since midnight (hover to see other rain measurements)
** Current wind speed in m/s (hover to see current wind gust speed)